DW8107 Weather Reports


time (UTC)temp
F
wind
direction
speed
knots
gust
knots
rain 1hr
in
rain 24hr
in
rain mn
in
humidity
%
barometer
mb
20190218003024 75 143 0.0 1.7 0.00 0.00 0.00 79 1014.7
20190218001512 75 240 0.0 1.7 0.00 0.00 0.00 77 1014.5
20190218000010 76 188 0.0 3.5 0.00 0.00 0.00 75 1014.3
20190217234509 77 309 0.0 1.7 0.00 0.00 0.00 75 1014.2
20190217233019 77 147 0.0 4.3 0.00 0.00 0.00 73 1014.1
20190217231509 78 133 0.9 4.3 0.00 0.00 0.00 71 1013.9
20190217230003 79 160 0.0 7.0 0.00 0.00 0.00 71 1013.8
20190217224503 79 152 0.0 3.5 0.00 0.00 0.00 71 1013.6
20190217223002 80 157 0.0 4.3 0.00 0.00 0.00 70 1013.5
20190217221725 80 152 1.7 6.1 0.00 0.00 0.00 69 1013.3
20190217220214 81 143 0.9 7.0 0.00 0.00 0.00 68 1013.1
20190217220001 81 149 1.7 7.0 0.00 0.00 0.00 68 1013.2
20190217214643 81 188 0.0 7.0 0.00 0.00 0.00 67 1013.1
20190217213122 82 131 0.9 11.3 0.00 0.00 0.00 66 1013.3
20190217211630 82 191 1.7 6.1 0.00 0.00 0.00 64 1013.1
20190217210146 82 214 0.9 6.1 0.00 0.00 0.00 65 1013.2
20190217204701 83 170 0.0 5.2 0.00 0.00 0.00 64 1013.2
20190217203208 84 88 0.0 6.1 0.00 0.00 0.00 62 1013.2
20190217201646 85 158 0.9 7.0 0.00 0.00 0.00 63 1013.1
20190217200200 85 260 0.0 3.5 0.00 0.00 0.00 63 1013.1
20190217194625 86 94 0.0 3.5 0.00 0.00 0.00 61 1013.1
20190217193126 84 84 0.0 4.3 0.00 0.00 0.00 64 1013.1
20190217191648 83 143 0.0 3.5 0.00 0.00 0.00 64 1013.1
20190217190200 83 53 0.0 5.2 0.00 0.00 0.00 63 1013.0
20190217184616 84 172 0.9 4.3 0.00 0.00 0.00 63 1013.4
20190217183157 83 117 0.9 5.2 0.00 0.00 0.00 65 1013.4
20190217181629 84 130 0.9 7.0 0.00 0.00 0.00 63 1013.5
20190217180115 84 206 0.0 5.2 0.00 0.00 0.00 64 1013.7
20190217174624 82 128 1.7 7.8 0.00 0.00 0.00 65 1014.0
20190217173122 83 153 0.0 3.5 0.00 0.00 0.00 63 1014.2
20190217171621 83 297 0.9 5.2 0.00 0.00 0.00 63 1014.3
20190217170052 83 88 2.6 4.3 0.00 0.00 0.00 63 1014.5
20190217164629 83 106 1.7 4.3 0.00 0.00 0.00 62 1014.7
20190217163128 81 198 0.0 3.5 0.00 0.00 0.00 65 1015.0
20190217161614 81 169 0.9 5.2 0.00 0.00 0.00 63 1015.1
20190217160113 82 212 0.0 2.6 0.00 0.00 0.00 63 1015.1
20190217154540 81 262 0.9 4.3 0.00 0.00 0.00 65 1015.1
20190217153036 79 84 0.0 2.6 0.00 0.00 0.00 70 1015.1
20190217151619 78 155 0.0 3.5 0.00 0.00 0.00 73 1015.1
20190217150024 77 134 0.0 2.6 0.00 0.00 0.00 77 1015.1
20190217144511 75 121 0.0 5.2 0.00 0.00 0.00 81 1015.3
20190217143011 74 143 0.0 3.5 0.00 0.00 0.00 84 1015.1
20190217141504 72 54 0.0 2.6 0.00 0.00 0.00 88 1015.1
20190217140213 70 132 0.0 2.6 0.00 0.00 0.00 91 1015.1
20190217134632 68 91 0.0 2.6 0.00 0.00 0.00 92 1014.9
20190217133146 66 113 0.0 0.0 0.00 0.00 0.00 89 1014.7
20190217131629 65 80 0.0 0.0 0.00 0.00 0.00 88 1014.5
20190217130121 64 19 0.0 0.0 0.00 0.00 0.00 88 1014.4
20190217124625 63 19 0.0 0.9 0.00 0.00 0.00 88 1014.3
20190217123153 63 19 0.0 0.0 0.00 0.00 0.00 88 1014.3
20190217121549 62 19 0.0 0.0 0.00 0.00 0.00 89 1014.2
20190217120106 62 19 0.0 0.0 0.00 0.00 0.00 89 1014.1
20190217114648 62 19 0.0 0.0 0.00 0.00 0.00 90 1013.9
20190217113129 62 19 0.0 0.0 0.00 0.00 0.00 90 1013.8
20190217111549 62 19 0.0 0.0 0.00 0.00 0.00 90 1013.7
20190217110127 62 19 0.0 0.0 0.00 0.00 0.00 91 1013.6
20190217104551 63 19 0.0 0.0 0.00 0.00 0.00 91 1013.3
20190217103050 63 19 0.0 0.0 0.00 0.00 0.00 91 1013.2
20190217101548 63 19 0.0 0.0 0.00 0.00 0.00 91 1012.9
20190217100109 64 19 0.0 0.0 0.00 0.00 0.00 91 1012.8
20190217094546 64 19 0.0 0.0 0.00 0.00 0.00 91 1012.6
20190217093041 64 19 0.0 0.0 0.00 0.00 0.00 92 1012.6
20190217091529 64 19 0.0 0.0 0.00 0.00 0.00 91 1012.6
20190217090027 64 19 0.0 0.0 0.00 0.00 0.00 92 1012.5
20190217084514 64 19 0.0 0.0 0.00 0.00 0.00 92 1012.3
20190217083018 64 9 0.0 0.0 0.00 0.00 0.00 92 1012.2
20190217081520 64 9 0.0 0.0 0.00 0.00 0.00 92 1012.1
20190217080049 63 10 0.0 0.0 0.00 0.00 0.00 92 1012.1
20190217074508 63 9 0.0 0.0 0.00 0.00 0.00 93 1012.2
20190217073009 63 9 0.0 0.0 0.00 0.00 0.00 93 1012.2
20190217071506 64 9 0.0 0.0 0.00 0.00 0.00 93 1012.2
20190217070004 64 9 0.0 0.0 0.00 0.00 0.00 93 1012.3
20190217064503 64 8 0.0 0.0 0.00 0.00 0.00 92 1012.3
20190217063001 64 9 0.0 0.0 0.00 0.00 0.00 92 1012.3
20190217061758 64 9 0.0 0.0 0.00 0.00 0.00 92 1012.3
20190217060214 64 9 0.0 0.0 0.00 0.00 0.00 92 1012.3
20190217054635 65 9 0.0 0.0 0.00 0.00 0.00 92 1012.4
20190217053132 65 9 0.0 0.0 0.00 0.00 0.00 91 1012.3
20190217051654 65 9 0.0 0.0 0.00 0.00 0.00 91 1012.2
20190217050126 65 9 0.0 0.0 0.00 0.00 0.00 91 1012.3
20190217044705 66 9 0.0 0.0 0.00 0.00 0.00 90 1012.2
20190217043203 66 9 0.0 0.0 0.00 0.00 0.00 90 1012.4
20190217041641 66 9 0.0 0.0 0.00 0.00 0.00 90 1012.4
20190217040144 66 9 0.0 0.0 0.00 0.00 0.00 90 1012.4
20190217034622 66 9 0.0 0.0 0.00 0.00 0.00 89 1012.6
20190217033121 66 9 0.0 0.9 0.00 0.00 0.00 89 1012.6
20190217031628 66 193 0.0 0.0 0.00 0.00 0.00 90 1012.6
20190217030112 66 193 0.0 0.0 0.00 0.00 0.00 91 1012.6
20190217024706 67 193 0.0 0.0 0.00 0.00 0.00 91 1012.5
20190217023113 67 193 0.0 0.0 0.00 0.00 0.00 91 1012.4
20190217021620 67 193 0.0 0.0 0.00 0.00 0.00 91 1012.4
20190217020137 68 193 0.0 0.0 0.00 0.00 0.00 90 1012.3
20190217014618 68 193 0.0 0.0 0.00 0.00 0.00 90 1012.2
20190217013138 69 193 0.0 0.0 0.00 0.00 0.00 89 1012.1
20190217011612 69 193 0.0 0.0 0.00 0.00 0.00 89 1011.9
20190217010153 70 193 0.0 0.9 0.00 0.00 0.00 88 1011.8
20190217004623 71 210 0.0 0.9 0.00 0.00 0.00 87 1011.8